Alturas, CA

5:41 PM PST on December 06, 2019 (GMT -0800)
Alturas Municipal

Weather History for KAAT - October, 2019

Change the Weather History Date:

Thursday, October 24, 2019

  Actual Average Record
Temperature  
Mean Temperature 46 °F 44 °F  
Max Temperature 68 °F 61 °F 85 °F (1959)
Min Temperature 23 °F 27 °F 14 °F (1935)
Degree Days  
Heating Degree Days 20 21  
Month to date heating degree days 495 410  
Since 1 July heating degree days 801 787  
Cooling Degree Days 0 0  
Month to date cooling degree days 0 0  
Year to date cooling degree days 217 156  
Moisture  
Dew Point 22 °F    
Average Humidity 49    
Maximum Humidity 84    
Minimum Humidity 15    
Precipitation  
Precipitation 0.00 in 0.04 in 0.86 in (1939)
Month to date precipitation 0.31 0.67  
Year to date precipitation 12.54 10.33  
Sea Level Pressure  
Sea Level Pressure 30.38 in    
Wind  
Wind Speed 2 mph ()    
Max Wind Speed 8 mph    
Max Gust Speed 10 mph    
Visibility 9.7 miles    
Events      
T = Trace of Precipitation, MM = Missing Value Source: Averaged Metar Reports

Daily Weather History Graph

Daily Weather History Graph

Search for Another Location

Airport or City:

Astronomy

Oct. 24, 2019 Rise Set
Actual Time 7:24 AM PDT 6:07 PM PDT
Civil Twilight 6:56 AM PDT 6:36 PM PDT
Nautical Twilight 6:23 AM PDT 7:08 PM PDT
Astronomical Twilight 5:51 AM PDT 7:40 PM PDT
Moon 2:56 AM PDT (10/24) 4:42 PM PDT (10/24)
Length of Visible Light 11h 40m
Length of Day
10h 43m
Waning Crescent, 16% of the Moon is Illuminated
Oct 24
Waning Crescent
Oct 27
New
Nov 4
First Quarter
Nov 12
Full
Nov 19
Last Quarter

Hourly Weather History & Observations

Time (PDT) Temp. Windchill Dew Point Humidity Pressure Visibility Wind Dir Wind Speed Gust Speed Precip Events Conditions
12:55 AM 37.0 °F - 24.1 °F 59% 30.35 in 10.0 mi Calm Calm - N/A   Clear
1:55 AM 35.1 °F - 23.0 °F 61% 30.35 in 10.0 mi Calm Calm - N/A   Clear
2:55 AM 30.9 °F 27.5 °F 21.9 °F 69% 30.36 in 10.0 mi South 3.5 mph - N/A   Clear
3:55 AM 32.0 °F 26.4 °F 24.1 °F 73% 30.36 in 10.0 mi ESE 5.8 mph - N/A   Clear
4:55 AM 26.1 °F 20.5 °F 21.9 °F 84% 30.37 in 10.0 mi SSW 4.6 mph - N/A   Clear
5:55 AM 27.0 °F - 21.0 °F 78% 30.40 in 10.0 mi Calm Calm - N/A   Clear
6:55 AM 28.0 °F - 21.0 °F 75% 30.42 in 10.0 mi Calm Calm - N/A   Clear
7:55 AM 24.1 °F - 19.9 °F 84% 30.45 in 10.0 mi Calm Calm - N/A   Clear
8:55 AM 34.0 °F - 25.0 °F 70% 30.44 in 10.0 mi Calm Calm - N/A   Clear
9:55 AM 43.0 °F - 21.9 °F 43% 30.43 in 10.0 mi Calm Calm - N/A   Clear
10:55 AM 51.1 °F - 23.0 °F 33% 30.40 in 10.0 mi Calm Calm - N/A   Clear
11:55 AM 59.0 °F - 23.0 °F 25% 30.38 in 10.0 mi NNE 4.6 mph - N/A   Clear
12:55 PM 62.1 °F - 18.0 °F 18% 30.37 in 10.0 mi Variable 3.5 mph - N/A   Clear
1:55 PM 64.0 °F - 19.9 °F 18% 30.35 in 10.0 mi Variable 3.5 mph - N/A   Clear
2:55 PM 66.0 °F - 19.0 °F 17% 30.35 in 10.0 mi Calm Calm - N/A   Clear
3:55 PM 66.0 °F - 17.1 °F 15% 30.35 in 10.0 mi Calm Calm - N/A   Clear
4:55 PM 66.9 °F - 19.0 °F 16% 30.34 in 10.0 mi East 6.9 mph - N/A   Clear
5:55 PM 63.0 °F - 19.9 °F 19% 30.35 in 10.0 mi Calm Calm - N/A   Clear
6:55 PM 48.9 °F - 24.1 °F 38% 30.39 in 10.0 mi SSE 3.5 mph - N/A   Unknown
7:55 PM 46.0 °F 43.1 °F 25.0 °F 44% 30.42 in 10.0 mi NNE 5.8 mph - N/A   Clear
8:55 PM 41.0 °F - 24.1 °F 51% 30.41 in 10.0 mi Calm Calm - N/A   Clear
9:55 PM 39.9 °F - 24.1 °F 53% 30.39 in 5.0 mi Calm Calm - N/A   Haze
10:55 PM 36.0 °F - 25.0 °F 64% 30.39 in 7.0 mi Calm Calm - N/A   Clear
11:55 PM 37.0 °F 34.5 °F 23.0 °F 57% 30.36 in 10.0 mi ENE 3.5 mph - N/A   Clear